Weather History for Miami, FL

Change the Weather History Date:

Thursday, July 25, 2013

  Actual Average Record
Temperature  
Mean Temperature 84 °F 84 °F  
Max Temperature 93 °F 91 °F 96 °F (1940)
Min Temperature 75 °F 78 °F 71 °F (1951)
Degree Days  
Heating Degree Days 0 0  
Month to date heating degree days 0 0  
Since 1 June heating degree days 0 0  
Since 1 July heating degree days 0 0  
Cooling Degree Days 19 19  
Month to date cooling degree days 432 474  
Year to date cooling degree days 2425 2362  
Since 1 June cooling degree days 980 1006  
Growing Degree Days 34 (Base 50)    
Moisture  
Dew Point 73 °F    
Average Humidity 70    
Maximum Humidity 91    
Minimum Humidity 49    
Precipitation  
Precipitation 0.00 in 0.19 in 2.29 in (1937)
Month to date precipitation 11.90 5.29  
Year to date precipitation 37.45 30.31  
Snow  
Snow 0.00 in - - ()
Month to date snowfall 0.0  
Since 1 June snowfall 0.0  
Since 1 July snowfall 0.0  
Snow Depth 0.00 in    
Sea Level Pressure  
Sea Level Pressure 30.00 in    
Wind  
Wind Speed 7 mph (WSW)    
Max Wind Speed 14 mph    
Max Gust Speed 20 mph    
Visibility 10 miles    
Events      
T = Trace of Precipitation, MM = Missing Value Source: NWS Daily Summary

Daily Weather History Graph

Daily Weather History Graph

Search for Another Location

Airport:

Trip Planner

Search our weather history database for the weather conditions in past years. The results will help you decide how hot, cold, wet, or windy it might be!

Date:

Astronomy

Jul. 25, 2013 Rise Set
Actual Time 6:44 AM EDT 8:11 PM EDT
Civil Twilight 6:19 AM EDT 8:36 PM EDT
Nautical Twilight 5:49 AM EDT 9:05 PM EDT
Astronomical Twilight 5:18 AM EDT 9:36 PM EDT
Moon 10:20 PM EDT (7/25) 9:45 AM EDT (7/25)
Length of Visible Light 14h 16m
Length of Day
13h 26m
Waning Gibbous, 88% of the Moon is Illuminated
Jul 25
Waning Gibbous
Jul 29
Last Quarter
Aug 6
New
Aug 14
First Quarter
Aug 20
Full

Hourly Weather History & Observations

Time (EDT) Temp. Heat Index Dew Point Humidity Pressure Visibility Wind Dir Wind Speed Gust Speed Precip Events Conditions
12:53 AM 81.0 °F 85.8 °F 73.0 °F 77% 29.99 in 10.0 mi WSW 4.6 mph - N/A   Mostly Cloudy
1:53 AM 80.1 °F 84.2 °F 73.0 °F 79% 29.97 in 10.0 mi WSW 3.5 mph - N/A   Mostly Cloudy
2:53 AM 80.1 °F 84.2 °F 73.0 °F 79% 29.96 in 10.0 mi West 4.6 mph - N/A   Mostly Cloudy
3:53 AM 79.0 °F - 73.0 °F 82% 29.95 in 10.0 mi Calm Calm - N/A   Mostly Cloudy
4:53 AM 77.0 °F - 72.0 °F 84% 29.95 in 10.0 mi South 4.6 mph - N/A   Mostly Cloudy
5:53 AM 75.0 °F - 72.0 °F 90% 29.96 in 10.0 mi South 3.5 mph - N/A   Scattered Clouds
6:53 AM 77.0 °F - 73.0 °F 88% 29.97 in 10.0 mi SSW 3.5 mph - N/A   Mostly Cloudy
7:53 AM 79.0 °F - 75.0 °F 88% 29.99 in 10.0 mi SSW 3.5 mph - N/A   Scattered Clouds
8:53 AM 82.9 °F 88.8 °F 73.0 °F 72% 30.01 in 10.0 mi SW 9.2 mph - N/A   Scattered Clouds
9:53 AM 84.9 °F 91.4 °F 73.0 °F 67% 30.01 in 10.0 mi WSW 10.4 mph - N/A   Mostly Cloudy
10:53 AM 87.1 °F 92.0 °F 70.0 °F 57% 30.03 in 10.0 mi West 10.4 mph - N/A   Mostly Cloudy
11:53 AM 88.0 °F 92.9 °F 70.0 °F 55% 30.05 in 10.0 mi SW 8.1 mph - N/A   Mostly Cloudy
12:53 PM 89.1 °F 94.1 °F 70.0 °F 53% 30.04 in 10.0 mi West 9.2 mph - N/A   Mostly Cloudy
1:53 PM 91.0 °F 96.6 °F 70.0 °F 50% 30.02 in 10.0 mi West 6.9 mph - N/A   Mostly Cloudy
2:53 PM 91.9 °F 97.4 °F 70.0 °F 48% 30.01 in 10.0 mi West 9.2 mph 16.1 mph N/A   Mostly Cloudy
3:53 PM 91.9 °F 97.4 °F 70.0 °F 48% 30.00 in 10.0 mi West 8.1 mph - N/A   Mostly Cloudy
4:53 PM 91.0 °F 98.2 °F 72.0 °F 53% 30.00 in 10.0 mi West 6.9 mph - N/A   Mostly Cloudy
5:53 PM 90.0 °F 96.9 °F 72.0 °F 55% 30.00 in 10.0 mi West 9.2 mph - N/A   Mostly Cloudy
6:53 PM 88.0 °F 96.5 °F 73.9 °F 63% 30.01 in 10.0 mi WSW 12.7 mph - N/A   Mostly Cloudy
7:53 PM 86.0 °F 95.1 °F 75.0 °F 70% 30.01 in 10.0 mi WSW 6.9 mph - N/A   Mostly Cloudy
8:53 PM 84.9 °F 93.3 °F 75.0 °F 72% 30.02 in 10.0 mi WSW 11.5 mph - N/A   Mostly Cloudy
9:53 PM 84.0 °F 91.9 °F 75.0 °F 74% 30.04 in 10.0 mi WSW 9.2 mph - N/A   Mostly Cloudy
10:53 PM 82.9 °F 90.2 °F 75.0 °F 77% 30.05 in 10.0 mi WSW 11.5 mph - N/A   Mostly Cloudy
11:53 PM 82.9 °F 90.2 °F 75.0 °F 77% 30.04 in 10.0 mi WSW 6.9 mph - N/A   Mostly Cloudy